Date,TemperatureHighF,TemperatureAvgF,TemperatureLowF,DewpointHighF,DewpointAvgF,DewpointLowF,HumidityHigh,HumidityAvg,HumidityLow,PressureMaxIn,PressureMinIn,WindSpeedMaxMPH,WindSpeedAvgMPH,GustSpeedMaxMPH,PrecipitationSumIn
2013-1-1,49,46,42,47,41,29,95,84,56,29.99,29.81,6,2,11,0.17
2013-1-2,47,43,38,46,41,37,95,93,87,30.08,29.81,5,1,9,0.33
2013-1-3,45,38,28,37,35,26,95,88,72,30.14,30.04,4,1,7,0.00
2013-1-4,50,37,24,35,27,22,94,69,40,30.19,30.06,8,2,16,0.00
2013-1-5,51,37,25,34,27,21,92,70,39,30.28,30.15,4,1,7,0.00
2013-1-6,49,42,32,40,36,30,93,81,69,30.15,29.95,4,1,8,0.02
2013-1-7,54,37,25,37,30,24,95,79,47,30.33,30.06,7,1,13,0.00
2013-1-8,34,28,25,33,26,23,95,93,91,30.35,30.30,1,0,2,0.00
2013-1-11,53,51,45,51,49,44,95,95,94,30.22,30.02,4,1,5,0.23
2013-1-12,68,57,51,62,55,50,96,93,80,30.05,29.99,3,1,5,0.01
2013-1-13,76,62,56,65,58,54,96,87,66,30.03,29.93,6,2,11,0.00
2013-1-14,69,62,54,64,59,51,95,90,81,30.04,29.95,4,1,8,0.00
2013-1-15,61,46,44,60,45,43,96,95,92,30.13,29.96,8,3,13,0.01
2013-1-16,50,47,45,49,46,44,96,96,96,29.95,29.86,5,1,7,0.09
2013-1-17,51,46,33,50,45,31,96,95,93,29.98,29.81,9,4,21,1.05
2013-1-18,48,36,27,35,30,25,96,81,45,30.43,30.00,7,2,15,0.15
2013-1-19,55,36,23,36,28,21,95,77,38,30.40,30.04,6,1,8,0.01
2013-1-20,64,47,32,40,35,29,94,68,34,30.04,29.84,10,3,16,0.00
2013-1-21,60,42,26,37,30,21,95,67,32,29.97,29.73,7,2,13,0.00
2013-1-22,40,32,20,27,12,2,83,47,22,30.18,29.83,9,3,18,0.00
2013-1-23,41,26,15,21,16,8,91,69,32,30.27,29.96,7,1,13,0.00
2013-1-24,36,30,17,26,17,8,82,59,38,30.42,29.83,12,4,27,0.00
2013-1-25,28,23,16,26,18,9,93,80,48,30.42,30.00,5,1,5,0.01
2013-1-26,36,30,24,32,27,22,94,91,83,30.30,29.98,4,1,7,0.16
2013-1-27,42,31,24,31,26,23,95,84,60,30.49,30.29,5,1,9,0.09
2013-1-28,52,40,25,47,36,23,94,84,66,30.40,30.10,5,2,9,0.02
2013-1-29,74,59,47,59,52,45,93,80,56,30.10,29.96,9,3,14,0.00
2013-1-30,73,67,59,64,62,56,94,83,72,29.96,29.29,16,9,36,0.01
2013-1-31,69,48,31,64,34,22,89,62,35,29.90,29.25,16,8,36,0.39
2013-2-1,42,35,22,30,16,5,82,50,26,30.28,29.77,12,5,25,0.00
2013-2-2,44,32,16,36,17,10,90,59,29,30.29,29.92,8,2,15,0.00
2013-2-3,50,41,29,37,32,24,91,71,42,29.91,29.73,9,3,14,0.00
2013-2-4,50,37,23,29,25,20,92,64,38,30.03,29.87,6,2,9,0.00
2013-2-5,61,45,33,39,34,28,88,65,38,29.90,29.75,8,3,13,0.00
2013-2-6,63,43,27,40,31,25,95,69,27,30.18,29.85,6,2,13,0.00
2013-2-7,50,42,35,42,37,31,94,84,69,30.23,29.88,7,3,13,0.30
2013-2-8,56,46,41,47,41,30,95,83,59,29.91,29.66,9,6,20,0.75
2013-2-9,53,40,26,30,25,20,90,61,28,30.24,29.91,8,3,13,0.00
2013-2-10,53,38,22,37,26,19,94,68,34,30.38,30.11,6,1,10,0.01
2013-2-11,62,56,44,60,53,38,95,90,79,30.12,29.79,8,4,16,0.03
2013-2-12,62,54,46,54,39,30,89,62,30,29.95,29.78,7,3,16,0.00
2013-2-13,48,47,44,46,44,38,95,91,77,29.84,29.50,8,3,11,0.25
2013-2-14,53,41,28,39,34,27,95,79,55,29.96,29.70,5,1,11,0.00
2013-2-15,64,43,26,44,34,24,95,73,34,29.98,29.81,5,1,10,0.01
2013-2-16,45,37,32,37,34,30,95,87,69,29.85,29.70,5,2,8,0.29
2013-2-17,36,30,22,30,19,12,95,67,37,30.17,29.78,12,5,26,0.02
2013-2-18,52,33,16,28,21,13,93,65,29,30.31,30.16,6,1,11,0.04
2013-2-19,54,44,34,51,39,26,93,82,67,30.16,29.72,10,4,17,0.06
2013-2-20,54,41,31,38,24,15,93,53,22,30.03,29.83,9,4,16,0.00
2013-2-21,55,40,23,30,23,20,91,55,26,30.17,29.99,7,2,13,0.00
2013-2-22,40,36,32,36,31,22,95,82,48,30.25,30.03,6,2,12,0.36
2013-2-23,44,40,37,42,39,35,96,95,95,30.03,29.69,5,1,8,0.78
2013-2-24,63,48,34,47,40,31,96,78,34,29.92,29.67,8,2,16,0.18
2013-2-25,43,37,31,32,26,23,93,66,48,30.11,29.92,6,2,12,0.00
2013-2-26,58,46,35,56,42,27,96,88,70,30.04,29.45,10,4,16,0.71
2013-2-27,61,49,36,46,41,34,96,76,46,29.65,29.49,9,4,14,0.00
2013-2-28,49,40,33,38,32,28,95,75,49,29.73,29.57,9,2,19,0.00
2013-3-1,49,40,26,34,29,24,94,68,47,29.79,29.70,6,2,13,0.00
2013-3-2,49,40,29,32,27,22,92,61,44,29.79,29.68,7,2,12,0.00
2013-3-3,48,37,28,28,23,21,76,59,39,29.86,29.70,8,3,14,0.45
2013-3-4,50,36,26,28,23,19,88,63,33,29.98,29.84,8,1,14,0.89
2013-3-5,53,41,27,44,35,23,95,82,42,29.97,29.47,8,2,11,0.27
2013-3-6,43,40,36,41,35,31,95,83,69,29.88,29.35,15,8,32,0.07
2013-3-7,49,42,30,35,31,27,91,67,51,30.10,29.88,8,4,20,0.00
2013-3-8,55,44,32,31,28,25,79,56,35,30.15,30.00,10,4,21,0.00
2013-3-9,63,45,29,39,30,25,88,61,29,30.21,30.11,6,2,12,0.00
2013-3-10,67,46,27,40,30,21,94,62,18,30.21,30.09,6,1,11,0.00
2013-3-11,70,53,34,53,45,31,95,74,50,30.14,29.85,9,4,17,0.00
2013-3-12,72,62,50,64,55,36,95,79,56,29.84,29.61,9,5,18,0.42
2013-3-13,58,47,33,37,30,20,92,54,32,30.00,29.81,11,4,18,0.00
2013-3-14,54,40,28,28,22,18,85,50,26,30.11,29.97,9,4,15,0.00
2013-3-15,63,44,24,38,30,21,94,63,34,30.06,29.78,10,3,17,0.00
2013-3-16,78,61,48,53,46,36,76,59,38,29.78,29.51,10,4,17,0.00
2013-3-17,58,50,40,52,44,37,93,81,66,30.08,29.69,9,4,14,0.00
2013-3-18,44,41,38,42,39,36,95,94,93,30.10,29.78,7,3,12,0.12
2013-3-19,67,52,40,49,37,19,96,64,22,29.89,29.69,11,4,17,0.02
2013-3-20,56,45,32,32,21,8,90,42,21,29.99,29.68,7,2,11,0.00
2013-3-21,49,38,30,32,25,14,90,60,31,29.85,29.60,11,4,21,0.44
2013-3-22,31,30,28,21,20,18,71,66,61,29.88,29.85,0,0,17,0.05
2013-3-29,61,50,37,36,32,28,87,56,31,30.09,30.05,7,2,12,0.00
2013-3-30,66,49,30,45,36,28,94,68,29,30.13,29.96,6,1,10,0.00
2013-3-31,68,56,46,59,50,42,95,84,69,29.99,29.68,8,2,12,0.36
2013-4-1,72,61,53,55,48,38,96,68,36,29.83,29.66,9,3,15,0.01
2013-4-2,60,48,33,38,32,26,92,58,28,30.04,29.84,9,3,20,0.00
2013-4-3,61,47,34,38,31,23,93,58,25,30.18,30.02,8,2,18,0.84
2013-4-4,51,43,39,41,34,27,94,73,48,30.26,29.80,9,4,15,0.65
2013-4-5,63,48,39,51,43,38,95,85,53,29.89,29.72,5,2,15,0.05
2013-4-6,64,50,36,42,35,28,95,61,30,30.18,29.89,8,3,12,0.00
2013-4-7,71,53,32,50,41,29,94,67,40,30.19,29.99,8,2,13,0.47
2013-4-8,79,65,53,61,54,49,93,71,45,30.05,29.92,9,4,17,0.00
2013-4-9,84,70,58,64,59,54,93,70,43,30.05,29.92,8,3,14,0.00
2013-4-10,86,73,60,66,61,57,90,68,45,29.97,29.81,9,4,16,0.00
2013-4-11,69,66,63,61,58,58,83,77,73,29.84,29.83,6,4,10,0.00
2013-4-15,72,66,60,62,56,-100,91,73,62,30.10,-32.77,9,-9,14,0.00
2013-4-16,76,63,52,64,58,50,96,86,62,30.19,30.07,4,1,6,0.00
2013-4-17,82,68,52,69,61,51,96,82,59,30.11,29.98,5,2,9,0.00
2013-4-18,79,68,56,66,60,54,95,77,55,30.08,29.93,8,3,12,0.00
2013-4-19,83,70,63,71,64,-100,95,84,65,29.93,29.61,13,-3,21,0.30
2013-4-20,66,55,42,64,45,35,95,71,40,30.15,29.68,10,3,16,0.44
2013-4-21,63,50,38,47,41,37,95,73,49,30.38,30.16,8,4,15,0.01
2013-4-22,63,48,36,48,41,34,91,77,56,30.38,30.15,8,4,16,0.01
2013-4-23,67,54,46,53,48,45,95,80,58,30.15,30.00,5,3,14,0.01
2013-4-24,77,60,41,61,52,40,96,77,51,30.04,29.84,9,3,15,0.01
2013-4-25,70,60,47,58,50,42,95,71,47,30.16,29.88,6,2,13,0.00
2013-4-26,72,57,41,53,45,40,96,70,33,30.30,30.16,5,1,11,0.01
2013-4-27,74,61,49,55,49,44,93,68,37,30.27,30.14,4,1,10,0.00
2013-4-28,65,58,52,57,50,43,94,75,56,30.17,30.00,4,1,9,0.16
2013-4-29,71,62,54,66,60,53,96,92,80,30.00,29.85,4,1,6,1.26
2013-4-30,64,60,58,60,59,57,96,95,87,30.01,29.88,3,1,7,0.02
2013-5-1,61,59,57,58,57,55,95,91,88,30.21,30.10,6,4,11,0.00
2013-5-2,64,59,53,58,56,50,93,87,80,30.22,30.13,5,2,12,0.00
2013-5-3,72,58,49,58,50,44,95,76,47,30.16,30.05,9,4,15,0.01
2013-5-4,65,55,49,56,50,45,90,82,70,30.11,29.97,7,4,16,0.00
2013-5-5,60,55,49,56,52,46,91,88,84,30.01,29.88,9,4,13,0.00
2013-5-6,71,62,56,66,59,54,95,91,81,29.91,29.71,10,4,17,0.02
2013-5-7,72,61,49,61,55,47,96,82,50,29.83,29.73,8,2,12,0.03
2013-5-8,72,60,48,62,55,46,96,86,63,29.90,29.80,6,1,10,0.08
2013-5-9,80,65,53,65,58,52,96,81,48,29.94,29.85,6,1,12,0.09
2013-5-10,86,71,52,67,60,51,96,72,46,29.94,29.81,8,2,13,0.00
2013-5-11,83,73,66,69,64,60,95,75,52,29.84,29.66,9,4,15,0.08
2013-5-12,75,66,47,65,55,42,95,70,37,29.90,29.65,9,3,16,0.09
2013-5-13,61,50,46,46,43,39,91,78,45,30.03,29.90,3,1,5,0.00
2013-5-14,70,62,49,53,44,37,87,55,32,30.15,29.97,6,2,9,0.00
2013-5-15,87,74,50,66,59,45,84,61,44,29.98,29.75,7,4,17,0.00
2013-5-16,86,75,64,67,62,59,88,65,44,29.84,29.76,8,3,16,0.00
2013-5-17,86,73,58,71,63,56,95,73,43,29.96,29.84,5,1,9,0.00
2013-5-18,76,69,63,71,66,60,95,89,75,30.03,29.94,4,1,9,0.06
2013-5-19,81,69,64,72,66,63,96,90,67,30.04,29.94,11,2,17,0.22
2013-5-20,79,70,66,73,68,65,96,93,80,30.01,29.91,6,2,17,0.44
2013-5-21,81,72,67,74,69,66,96,90,79,29.93,29.83,6,2,13,0.44
2013-5-22,84,74,68,72,69,66,95,84,62,29.91,29.80,8,3,11,0.01
2013-5-23,83,70,66,72,67,64,95,91,64,29.85,29.70,8,2,14,0.07
2013-5-24,71,64,46,66,56,41,96,78,48,30.05,29.67,10,4,19,0.08
2013-5-25,73,56,41,53,45,39,95,71,33,30.15,30.01,7,2,14,0.00
2013-5-26,73,58,42,58,48,41,96,75,37,30.16,30.05,5,1,13,0.00
2013-5-27,79,64,46,62,53,44,96,73,42,30.17,30.04,5,1,9,0.01
2013-5-28,83,71,56,70,63,53,95,77,57,30.14,30.02,7,2,12,0.00
2013-5-29,84,73,59,71,65,57,95,77,55,30.12,30.04,7,2,11,0.00
2013-5-30,86,74,58,71,65,57,96,77,48,30.15,30.05,5,2,10,0.00
2013-5-31,87,76,62,73,68,61,96,77,52,30.10,29.97,6,2,11,0.00
2013-6-1,87,77,67,73,69,65,95,77,53,30.02,29.90,7,3,12,0.00
2013-6-2,86,77,68,72,68,65,92,75,54,29.94,29.78,7,3,14,0.00
2013-6-3,79,74,68,75,71,66,95,90,81,29.84,29.71,7,2,12,0.41
2013-6-4,80,72,64,68,65,61,96,80,59,29.99,29.80,6,1,11,0.41
2013-6-5,82,71,58,66,62,56,96,74,50,30.03,29.90,6,2,10,0.00
2013-6-6,76,69,63,72,66,59,96,91,80,29.94,29.72,6,2,10,0.37
2013-6-7,80,72,68,77,70,67,96,94,86,29.74,29.33,14,3,18,0.40
2013-6-8,84,74,68,75,70,67,96,88,66,29.97,29.69,7,2,17,0.50
2013-6-9,87,76,65,77,71,64,96,85,63,30.04,29.93,7,1,10,0.06
2013-6-10,83,75,71,77,72,69,95,91,76,29.99,29.78,8,4,13,0.26
2013-6-11,86,76,68,72,69,66,94,81,56,29.83,29.75,9,4,15,0.27
2013-6-12,90,76,62,77,70,61,96,82,56,29.84,29.74,7,2,9,0.00
2013-6-13,94,81,69,80,72,63,96,77,47,29.74,29.45,17,4,30,0.04
2013-6-14,81,71,59,67,60,57,95,71,47,29.89,29.58,8,3,16,0.05
2013-6-15,86,70,55,70,62,54,96,77,44,29.99,29.89,6,2,11,0.00
2013-6-16,87,75,64,72,65,57,88,72,58,30.00,29.87,9,3,16,0.00
2013-6-17,86,77,70,76,70,65,87,78,66,29.91,29.80,6,3,9,0.00
2013-6-18,84,75,69,75,71,67,95,88,70,29.84,29.60,8,2,11,1.15
2013-6-19,80,72,64,70,67,63,96,85,71,30.00,29.74,5,2,11,1.15
2013-6-20,82,71,61,67,62,55,95,76,53,30.13,30.00,6,2,11,0.01
2013-6-21,84,70,54,69,62,52,95,77,49,30.14,30.06,5,2,9,0.00
2013-6-22,80,72,68,73,69,66,96,91,75,30.10,29.96,5,2,10,0.47
2013-6-23,85,75,67,77,71,66,96,88,74,30.09,30.00,5,1,7,0.75
2013-6-24,86,78,72,77,73,70,95,87,70,30.08,29.96,5,2,10,0.00
2013-6-25,88,77,70,79,73,68,95,87,70,30.01,29.92,7,3,11,0.00
2013-6-26,90,80,69,78,73,67,95,81,62,29.89,29.76,9,4,13,0.30
2013-6-27,89,76,68,79,72,66,96,87,67,29.78,29.59,8,3,12,0.30
2013-6-28,90,80,72,79,74,68,95,83,63,29.64,29.45,10,4,12,0.02
2013-7-24,95,85,73,76,72,70,94,68,49,29.73,29.60,8,2,14,0.00
2013-7-25,84,73,66,74,69,64,95,87,66,29.91,29.70,5,2,14,0.00
2013-7-26,86,72,60,71,64,58,97,79,49,29.99,29.89,3,1,7,0.00
2013-7-27,89,74,62,74,68,61,97,83,55,29.94,29.82,5,1,11,0.00
2013-7-28,86,77,72,78,73,70,96,86,64,29.88,29.79,5,1,11,0.00
2013-7-29,89,78,72,74,71,67,95,80,53,30.02,29.86,5,1,7,0.00
2013-7-30,89,76,62,73,68,60,96,79,47,30.09,30.00,4,1,8,0.00
2013-7-31,85,76,70,76,72,68,96,87,67,30.02,29.89,4,1,8,0.00
2013-8-1,85,76,70,76,72,69,96,88,70,29.89,29.73,4,1,8,0.00
2013-8-2,90,78,66,74,70,65,96,79,55,29.89,29.77,3,1,7,0.00
2013-8-3,90,78,70,79,73,68,96,87,65,29.89,29.77,10,2,23,0.00
2013-8-4,84,74,64,72,68,62,97,84,55,29.91,29.76,5,2,23,0.00
2013-8-5,83,72,60,71,64,58,97,80,54,29.98,29.89,6,1,9,0.00
2013-8-6,83,73,66,74,68,64,95,83,66,29.95,29.88,5,0,9,0.00
2013-8-7,87,76,66,74,70,64,96,82,61,29.99,29.90,5,1,12,0.00
2013-8-8,90,78,68,76,72,66,97,82,58,29.95,29.87,4,1,10,0.00
2013-8-9,92,82,74,79,75,72,96,81,61,29.92,29.84,8,2,14,0.00
2013-8-10,93,79,71,81,75,69,96,88,60,29.99,29.86,20,3,26,0.00
2013-8-11,91,78,71,80,74,70,97,88,60,29.98,29.87,7,1,10,0.00
2013-8-12,92,80,71,79,75,70,97,85,58,29.92,29.80,4,1,8,0.00
2013-8-13,89,79,71,80,74,69,97,88,70,29.85,29.66,15,3,22,0.00
2013-8-14,74,70,60,67,63,59,96,81,68,29.97,29.83,5,2,11,0.00
2013-8-15,77,65,59,65,60,57,96,84,55,30.04,29.95,6,1,13,0.00
2013-8-16,72,66,58,65,62,56,96,87,69,30.06,29.98,4,1,10,0.00
2013-8-17,65,64,63,62,62,61,95,93,91,30.04,30.01,1,0,5,0.00
2013-8-19,74,72,70,71,70,69,96,94,89,30.01,29.97,1,0,5,0.00
2013-8-20,82,74,68,76,71,67,97,92,77,30.07,29.98,4,0,7,0.00
2013-8-21,87,76,70,78,73,69,97,91,71,30.11,29.98,7,1,7,0.00
2013-8-22,88,77,68,77,72,67,97,85,60,30.02,29.86,5,1,9,0.00
2013-8-23,88,77,68,76,71,66,97,84,61,29.93,29.78,6,2,11,0.00
2013-8-24,84,73,62,68,63,60,95,75,46,30.18,29.93,8,3,17,0.00
2013-8-25,82,68,56,66,60,55,97,78,46,30.27,30.16,9,2,16,0.00
2013-8-26,82,67,52,67,59,51,97,80,47,30.20,29.99,4,1,9,0.00
2013-8-27,88,72,58,76,67,57,96,84,57,30.00,29.83,4,1,7,0.00
2013-8-28,83,75,67,76,72,66,97,91,76,29.85,29.73,4,0,5,0.00
2013-8-29,86,77,70,78,73,68,94,87,71,29.89,29.69,6,2,10,0.00
2013-8-30,87,74,64,73,68,62,97,83,53,29.94,29.82,5,1,8,0.00
2013-8-31,87,75,63,75,70,62,97,84,62,29.86,29.74,5,2,9,0.00
2013-9-1,88,76,71,79,73,70,96,90,72,29.78,29.67,9,2,12,0.00
2013-9-2,88,77,70,80,74,68,96,89,67,29.76,29.67,4,2,12,0.00
2013-9-3,85,74,69,79,72,65,97,92,64,29.81,29.67,9,1,11,0.00
2013-9-4,83,74,67,76,70,66,97,88,69,29.97,29.81,6,1,10,0.00
2013-9-5,86,74,64,76,68,62,97,83,46,29.97,29.89,6,1,10,0.00
2013-9-6,82,71,62,71,64,59,97,80,54,30.05,29.94,5,1,9,0.00
2013-9-7,81,68,55,69,62,54,97,84,58,30.02,29.86,3,1,8,0.00
2013-9-8,64,62,61,63,61,60,97,96,95,29.86,29.82,0,0,1,0.00
2013-9-9,86,80,67,75,72,66,97,78,61,30.04,29.97,6,2,10,0.00
2013-9-10,88,75,64,76,70,63,97,85,59,30.11,30.02,4,1,7,0.00
2013-9-11,89,77,66,76,70,64,97,82,59,30.08,29.95,6,1,9,0.00
2013-9-12,90,74,65,77,69,64,96,86,59,29.96,29.67,6,2,11,0.00
2013-9-13,88,75,63,69,65,59,96,74,47,29.75,29.62,7,2,14,0.00
2013-9-14,78,66,54,61,54,50,95,69,42,30.03,29.75,8,2,15,0.00
2013-9-15,80,63,48,65,56,47,97,81,49,30.12,30.00,4,1,8,0.00
2013-9-16,88,72,60,73,64,58,96,79,43,30.07,29.90,6,2,14,0.00
2013-9-17,79,66,57,60,56,52,92,71,42,30.20,30.07,8,3,14,0.00
2013-9-18,76,60,45,57,52,44,96,78,42,30.19,30.05,3,0,9,0.00
2013-9-19,78,63,49,65,56,48,96,82,48,30.08,29.97,3,0,9,0.00
2013-9-20,75,68,63,68,64,61,95,89,75,29.99,29.86,5,1,8,0.00
2013-9-21,75,69,63,70,67,62,96,93,84,29.86,29.61,7,2,18,0.00
2013-9-22,76,68,62,68,63,57,96,84,62,29.77,29.59,8,3,18,0.00
2013-9-23,71,61,52,61,55,50,96,83,60,29.96,29.77,6,1,10,0.00
2013-9-24,74,61,49,63,56,48,97,86,60,29.99,29.83,4,0,7,0.01
2013-9-25,75,61,49,65,58,48,97,89,66,29.85,29.75,4,0,7,0.03
2013-9-26,76,65,54,64,59,52,96,83,54,29.92,29.75,5,1,10,0.03
2013-9-27,73,60,48,63,55,47,97,85,61,30.07,29.92,7,2,14,0.07
2013-9-28,75,62,49,61,56,48,96,83,59,30.13,30.04,6,2,14,0.02
2013-9-29,76,60,47,61,55,46,97,84,54,30.05,29.90,5,1,11,0.01
2013-9-30,76,61,50,63,55,49,97,84,47,29.98,29.87,4,1,8,0.00
2013-10-1,82,63,48,66,57,46,97,84,49,30.01,29.89,4,0,6,0.00
2013-10-2,85,67,53,67,60,52,97,82,45,30.00,29.91,5,1,10,0.01
2013-10-3,85,68,54,70,62,53,97,84,54,30.01,29.93,4,0,8,0.00
2013-10-4,87,75,61,71,67,60,97,77,51,30.01,29.92,6,1,9,0.00
2013-10-5,89,72,59,72,65,58,97,82,50,29.99,29.90,4,0,9,0.00
2013-10-6,84,71,60,74,67,59,97,88,69,29.95,29.83,9,2,12,0.00
2013-10-7,77,71,65,73,69,62,97,94,86,29.86,29.73,8,2,13,0.00
2013-10-8,65,60,58,62,53,49,91,78,68,30.07,29.85,7,4,16,0.00
2013-10-9,62,58,56,57,54,52,94,87,82,30.06,29.93,9,5,18,0.00
2013-10-10,59,57,54,57,55,52,95,94,92,29.93,29.80,7,5,16,0.00
2013-10-11,64,62,58,62,60,56,95,93,89,29.84,29.77,5,2,13,0.00
2013-10-12,70,64,61,66,62,59,96,93,87,29.95,29.82,4,2,9,0.00
2013-10-13,68,64,62,66,63,61,96,95,90,30.07,29.94,5,3,9,0.00
2013-10-14,67,63,57,63,61,56,96,92,85,30.11,30.04,5,3,17,0.00
2013-10-15,70,61,52,64,58,51,97,91,81,30.07,29.94,5,1,10,0.00
2013-10-16,71,65,61,65,62,60,96,91,78,29.94,29.83,2,0,5,0.00
2013-10-17,77,67,58,69,63,57,97,88,70,29.84,29.72,5,1,10,0.00
2013-10-18,68,62,56,64,57,51,96,82,64,29.92,29.75,4,1,8,0.00
2013-10-19,68,64,61,66,62,59,96,93,90,29.87,29.70,4,1,7,0.00
2013-10-20,64,55,41,59,49,40,96,81,52,30.01,29.77,5,1,12,0.00
2013-10-21,66,50,36,54,45,35,97,86,48,30.06,29.90,4,0,9,0.04
2013-10-22,64,55,47,59,53,46,97,93,82,29.90,29.70,2,0,4,0.00
2013-10-23,67,58,48,60,50,38,97,77,46,29.87,29.57,9,3,18,0.01
2013-10-24,59,47,37,44,38,33,95,72,46,30.07,29.87,8,2,13,0.00
2013-10-25,56,44,32,41,36,30,95,76,43,30.24,30.06,6,2,14,0.00
2013-10-26,60,41,26,41,34,25,96,78,38,30.24,29.96,7,2,12,0.00
2013-10-27,67,50,39,51,43,38,96,78,43,30.02,29.93,5,1,9,0.00
2013-10-28,71,53,38,58,48,37,96,86,56,30.14,30.02,5,0,6,0.00
2013-10-29,72,57,48,61,53,47,97,88,59,30.22,30.12,3,0,8,0.00
2013-10-30,72,59,49,62,55,48,97,89,67,30.19,30.04,5,1,8,0.01
2013-10-31,76,64,51,63,58,50,97,83,61,30.08,29.82,7,2,14,0.00
2013-11-1,76,69,64,68,65,62,96,89,72,29.82,29.57,9,4,17,0.75
2013-11-2,71,62,53,62,53,43,95,76,46,29.80,29.56,8,3,15,0.00
2013-11-3,62,49,35,46,41,34,95,74,48,30.26,29.80,7,2,15,0.00
2013-11-4,54,43,31,41,36,29,96,78,51,30.44,30.26,6,2,12,0.00
2013-11-5,57,48,38,51,44,35,95,86,76,30.42,30.32,4,1,7,0.00
2013-11-6,70,56,43,60,52,42,97,88,66,30.32,30.00,5,0,8,0.01
2013-11-7,70,60,45,65,54,35,97,83,58,30.00,29.78,7,3,12,0.20
2013-11-8,57,43,30,38,34,29,95,72,43,30.21,29.98,7,2,14,0.00
2013-11-9,59,42,27,42,34,26,96,78,39,30.27,30.07,6,1,11,0.00
2013-11-10,71,51,35,47,39,31,95,67,33,30.12,29.92,9,2,16,0.00
2013-11-11,57,41,28,40,34,26,95,77,41,30.24,30.03,4,0,8,0.00
2013-11-12,58,40,30,44,33,19,96,77,51,30.30,29.94,10,3,23,0.02
2013-11-13,44,32,23,26,22,18,92,67,41,30.40,30.30,8,2,14,0.00
2013-11-14,58,38,21,32,26,19,93,70,30,30.36,30.22,7,2,12,0.00
2013-11-15,64,44,24,50,37,22,94,78,45,30.25,30.10,5,1,8,0.01
2013-11-16,63,54,46,59,52,45,97,93,85,30.16,30.09,3,0,5,0.01
2013-11-17,73,61,49,65,58,48,97,90,70,30.11,29.78,5,1,9,0.05
2013-11-18,74,65,51,66,55,34,95,72,43,29.82,29.67,7,3,11,0.01
2013-11-19,55,47,37,38,33,29,88,58,45,30.21,29.82,8,3,15,0.00
2013-11-20,52,44,36,40,35,30,85,72,60,30.34,30.21,6,3,13,0.00
2013-11-21,62,49,40,54,44,37,95,85,69,30.39,30.27,4,1,10,0.00
2013-11-22,72,60,45,63,56,43,97,88,70,30.27,29.96,7,2,8,0.02
2013-11-23,62,55,42,60,47,24,96,76,45,30.05,29.90,6,2,9,0.06
2013-11-24,42,32,20,26,16,8,88,53,32,30.44,30.05,8,4,16,0.00
2013-11-25,42,28,16,23,16,11,92,67,29,30.49,30.33,4,1,7,0.00
2013-11-26,67,51,39,65,48,27,97,90,61,30.12,29.44,8,4,12,0.83
2013-11-27,67,44,30,65,41,22,96,89,69,30.03,29.38,9,5,16,0.85
2013-11-28,43,31,22,29,22,17,94,72,46,30.39,30.04,6,2,16,0.00
2013-11-29,49,34,21,34,26,19,95,76,48,30.53,30.36,5,1,11,0.00
2013-11-30,49,36,28,39,30,24,95,81,63,30.53,30.26,4,2,11,0.00
2013-12-1,59,40,25,42,33,24,95,81,40,30.25,29.92,6,1,9,0.00
2013-12-2,59,41,31,47,36,29,96,85,49,29.91,29.71,2,0,6,0.00
2013-12-3,60,44,28,49,39,26,96,85,58,29.90,29.76,5,1,8,0.00
2013-12-4,65,55,48,59,52,47,96,90,78,29.99,29.88,3,0,4,0.02
2013-12-5,67,60,46,63,58,45,97,94,86,30.04,29.93,6,1,8,0.02
2013-12-6,78,70,64,67,64,62,93,82,65,29.97,29.85,11,5,19,0.00
2013-12-7,68,48,41,65,44,33,93,85,71,30.35,29.88,9,4,13,0.17
2013-12-8,41,36,33,33,32,30,95,88,71,30.36,30.18,5,3,14,0.17
2013-12-9,46,40,34,45,39,33,97,96,95,30.19,29.95,3,1,5,0.19
2013-12-10,47,42,28,46,40,26,97,93,76,30.22,29.81,5,1,9,0.54
2013-12-11,49,33,22,33,27,20,95,81,43,30.35,30.18,4,1,7,0.01
2013-12-12,27,27,26,26,25,24,95,95,94,30.18,30.15,0,0,0,0.00
2013-12-13,51,38,27,32,27,22,93,70,32,30.22,30.16,6,1,10,0.00
2013-12-14,46,40,33,41,36,31,95,89,63,30.20,29.66,7,2,11,0.80
2013-12-15,54,43,32,46,38,28,96,83,59,29.95,29.58,8,3,15,0.03
2013-12-16,54,37,26,38,31,24,95,82,49,30.07,29.95,5,1,8,0.01
2013-12-17,62,43,27,42,35,26,96,77,45,30.01,29.76,11,2,13,0.00
2013-12-18,48,37,25,38,27,23,93,71,41,30.18,29.91,7,2,13,0.00
2013-12-19,61,39,23,35,28,21,94,71,30,30.22,30.10,7,2,12,0.00
2013-12-20,66,50,33,56,44,31,95,82,67,30.14,30.00,7,2,14,0.00
2013-12-21,74,58,40,64,54,39,97,87,67,30.05,29.94,7,2,15,0.00
2013-12-22,79,70,62,68,64,59,93,84,64,29.99,29.91,10,5,19,0.01
2013-12-23,70,62,48,69,60,47,97,94,89,30.02,29.87,9,3,17,1.41
2013-12-24,48,41,29,47,33,19,95,75,59,30.34,30.00,7,3,14,0.02
2013-12-25,39,28,21,25,19,16,93,70,43,30.45,30.28,6,1,11,0.00
2013-12-26,49,33,22,37,29,20,95,87,59,30.30,30.14,4,1,5,0.02
2013-12-27,51,33,22,34,26,20,95,81,39,30.35,30.25,3,0,6,0.01
2013-12-28,59,38,21,40,30,19,94,78,34,30.30,30.05,4,0,8,0.00
2013-12-29,65,50,43,64,48,40,97,93,84,30.05,29.52,10,3,23,1.46
2013-12-30,55,43,33,48,40,32,97,89,65,30.03,29.81,5,1,8,0.01
2013-12-31,50,40,28,39,33,27,93,78,44,30.24,30.01,8,2,14,0.00
2014-1-1,52,37,28,37,31,26,95,82,40,30.32,30.04,5,0,8,0.01
2014-1-2,47,42,35,45,40,33,96,91,77,30.04,29.45,6,1,14,0.30